Hourly Data Report for March 25, 2022

KUGAARUK CLIMATE
NUNAVUT
Current Station Operator: ECCC - MSC

68°32'15.060" N
89°47'47.020" W
15.80 m
2303094
71407
NBB

Download Data

Hourly Data (March 2022)
Hourly Data Report for March 25, 2022
TIME
LST
Temp Definition
°C
Dew Point Definition
°C
Rel Hum Definition
%
Precip. Amount Definition
mm

Wind Dir Definition
10's deg

Wind Spd Definition
km/h
Visibility Definition
km
Stn Press Definition
kPa
Hmdx Definition


Wind Chill Definition


Weather Definition


00:00 -29.8 -33.2 72 0.0 26 24   101.59   -44 LegendNANA
01:00 -29.7 -33.1 72 0.0 24 23   101.59   -44 LegendNANA
02:00 -30.2 -33.6 72 0.0 23 20   101.62   -43 LegendNANA
03:00 -31.4 -34.9 71 0.0 24 16   101.62   -44 LegendNANA
04:00 -31.7 -35.2 71 0.0 25 25   101.61   -47 LegendNANA
05:00 -31.0 -34.4 72 0.0 24 27   101.63   -46 LegendNANA
06:00 -30.2 -33.9 71 0.0 24 23   101.67   -44 LegendNANA
07:00 -30.6 -34.5 68 0.0 24 24   101.65   -45 LegendNANA
08:00 -29.6 -33.7 67 0.0 26 24   101.68   -44 LegendNANA
09:00 -29.1 -33.6 65 0.0 26 20   101.68   -42 LegendNANA
10:00 -28.4 -32.9 65 0.0 25 20   101.68   -41 LegendNANA
11:00 -27.7 -32.3 65 0.0 26 17   101.67   -39 LegendNANA
12:00 -26.3 -31.0 65 0.0 26 13   101.67   -36 LegendNANA
13:00 -26.0 -30.3 67 0.0 25 12   101.68   -35 LegendNANA
14:00 -24.4 -28.3 70 0.0 26 11   101.71   -33 LegendNANA
15:00 -23.9 -28.1 68 0.0 33 14   101.73   -34 LegendNANA
16:00 -24.5 -28.3 71 0.0 30 10   101.76   -33 LegendNANA
17:00 -24.9 -28.6 72 0.0 31 10   101.80   -33 LegendNANA
18:00 -25.1 -28.7 72 0.0 30 9   101.81   -33 LegendNANA
19:00 -25.8 -29.2 73 0.0 25 12   101.80   -35 LegendNANA
20:00 -25.9 -29.4 73 0.0 27 8   101.81   -33 LegendNANA
21:00 -26.2 -29.7 72 0.0 29 9   101.78   -34 LegendNANA
22:00 -27.1 -30.4 73 0.0 28 11   101.79   -36 LegendNANA
23:00 -27.7 -30.8 74 0.0 27 12   101.78   -37 LegendNANA

Notes on Data Quality.

Legend

  • E = Estimated
  • M = Missing
  • NA = Not Available*
  • [empty] = Indicates an unobserved value
Date modified: